EW8921 Weather Reports


time (UTC)temp
C
wind
direction
speed
KPH
gust
KPH
rain 1hr
cm
rain 24hr
cm
rain mn
cm
humidity
%
barometer
mb
20260508114549 7 0 0.0 1.6 0.00 0.00 0.00 66 1015.2
20260508114527 7 70 0.0 1.6 0.00 0.00 0.00 66 1010.1
20260508113055 7 0 0.0 1.6 0.00 0.00 0.00 66 1015.3
20260508113025 7 69 0.0 1.6 0.00 0.00 0.00 66 1010.1
20260508111601 7 74 0.0 3.2 0.00 0.00 0.00 65 1015.2
20260508111523 7 69 0.0 1.6 0.00 0.00 0.00 65 1010.1
20260508110049 7 0 0.0 1.6 0.00 0.00 0.00 64 1015.1
20260508110021 7 53 0.0 1.6 0.00 0.00 0.00 64 1010.1
20260508104548 7 0 0.0 1.6 0.00 0.00 0.00 62 1015.1
20260508104523 7 53 0.0 1.6 0.00 0.00 0.00 63 1010.1
20260508103054 7 0 0.0 0.0 0.00 0.00 0.00 62 1015.0
20260508103017 7 52 0.0 0.0 0.00 0.00 0.00 63 1010.0
20260508101550 8 0 0.0 0.0 0.00 0.00 0.00 61 1014.8
20260508101515 8 54 0.0 0.0 0.00 0.00 0.00 61 1009.9
20260508100050 8 0 0.0 0.0 0.00 0.00 0.00 59 1014.9
20260508100012 8 54 0.0 0.0 0.00 0.00 0.00 59 1010.0
20260508094550 8 0 0.0 1.6 0.00 0.00 0.00 59 1014.7
20260508094510 8 54 0.0 1.6 0.00 0.00 0.00 60 1009.9
20260508093051 8 0 0.0 1.6 0.00 0.00 0.00 58 1015.0
20260508093012 8 53 0.0 1.6 0.00 0.00 0.00 59 1010.0
20260508091600 8 0 0.0 0.0 0.00 0.00 0.00 57 1015.0
20260508091512 8 54 0.0 0.0 0.00 0.00 0.00 58 1010.0
20260508090053 8 0 0.0 1.6 0.00 0.00 0.00 56 1014.9
20260508090010 9 54 0.0 1.6 0.00 0.00 0.00 57 1009.9
20260508084557 9 0 0.0 3.2 0.00 0.00 0.00 57 1015.0
20260508084504 9 54 0.0 3.2 0.00 0.00 0.00 57 1010.0
20260508083055 9 59 0.0 1.6 0.00 0.00 0.00 56 1014.9
20260508083011 9 54 0.0 1.6 0.00 0.00 0.00 56 1010.2
20260508081606 9 54 0.0 1.6 0.00 0.00 0.00 55 1010.1
20260508081550 9 0 0.0 1.6 0.00 0.00 0.00 55 1014.7
20260508080101 10 54 0.0 1.6 0.00 0.00 0.00 55 1010.2
20260508074555 10 54 0.0 1.6 0.00 0.00 0.00 52 1010.3
20260508074548 10 0 0.0 1.6 0.00 0.00 0.00 52 1014.9
20260508073058 10 54 0.0 0.0 0.00 0.00 0.00 51 1010.3
20260508073055 10 0 0.0 1.6 0.00 0.00 0.00 50 1014.9
20260508071554 11 54 0.0 0.0 0.00 0.00 0.00 49 1010.3
20260508071551 11 0 0.0 0.0 0.00 0.00 0.00 48 1015.0
20260508070054 11 0 0.0 1.6 0.00 0.00 0.00 46 1014.9
20260508070045 11 54 0.0 1.6 0.00 0.00 0.00 47 1010.1
20260508064603 12 54 0.0 1.6 0.00 0.00 0.00 47 1010.1
20260508064556 12 59 0.0 1.6 0.00 0.00 0.00 46 1014.8
20260508063052 12 0 0.0 1.6 0.00 0.00 0.00 46 1014.9
20260508063040 12 54 0.0 1.6 0.00 0.00 0.00 46 1010.1
20260508061549 13 59 0.0 3.2 0.00 0.00 0.00 44 1014.7
20260508061541 13 54 0.0 3.2 0.00 0.00 0.00 44 1010.0
20260508060049 13 59 0.0 3.2 0.00 0.00 0.00 46 1014.5
20260508060031 13 54 0.0 4.8 0.00 0.00 0.00 46 1009.9
20260508054549 13 0 0.0 0.0 0.00 0.00 0.00 44 1014.6
20260508054530 13 302 0.0 0.0 0.00 0.00 0.00 45 1010.0
20260508053056 13 0 0.0 0.0 0.00 0.00 0.00 44 1014.7
20260508053030 13 302 0.0 0.0 0.00 0.00 0.00 45 1010.1
20260508051555 13 0 0.0 0.0 0.00 0.00 0.00 44 1014.7
20260508051530 13 302 0.0 0.0 0.00 0.00 0.00 45 1010.1
20260508050104 13 0 0.0 0.0 0.00 0.00 0.00 43 1014.9
20260508050029 13 302 0.0 0.0 0.00 0.00 0.00 44 1010.2
20260508044556 14 0 0.0 0.0 0.00 0.00 0.00 41 1014.9
20260508044529 14 302 0.0 0.0 0.00 0.00 0.00 42 1010.1
20260508043048 15 0 0.0 0.0 0.00 0.00 0.00 38 1014.9
20260508043032 15 302 0.0 0.0 0.00 0.00 0.00 39 1010.2
20260508041554 15 0 0.0 1.6 0.00 0.00 0.00 37 1015.0
20260508041528 15 302 0.0 1.6 0.00 0.00 0.00 38 1010.2
20260508040057 16 0 0.0 0.0 0.00 0.00 0.00 37 1015.0
20260508040027 16 302 0.0 0.0 0.00 0.00 0.00 37 1010.3
20260508034549 16 0 0.0 0.0 0.00 0.00 0.00 32 1014.9
20260508034527 16 302 0.0 0.0 0.00 0.00 0.00 33 1010.2
20260508033050 17 298 0.0 1.6 0.00 0.00 0.00 30 1014.7
20260508033026 17 302 0.0 1.6 0.00 0.00 0.00 31 1010.1
20260508031555 17 0 0.0 1.6 0.00 0.00 0.00 29 1014.7
20260508031527 17 264 0.0 1.6 0.00 0.00 0.00 29 1010.1
20260508030056 18 0 0.0 0.0 0.00 0.00 0.00 28 1014.5
20260508030025 18 264 0.0 0.0 0.00 0.00 0.00 29 1010.1
20260508024555 18 0 0.0 0.0 0.00 0.00 0.00 29 1014.4
20260508024528 18 264 0.0 0.0 0.00 0.00 0.00 29 1009.9
20260508023053 18 0 0.0 0.0 0.00 0.00 0.00 27 1014.4
20260508023033 18 264 0.0 0.0 0.00 0.00 0.00 27 1009.9
20260508021552 20 0 0.0 0.0 0.00 0.00 0.00 24 1014.2
20260508021523 20 264 0.0 0.0 0.00 0.00 0.00 24 1009.7
20260508020057 21 0 0.0 1.6 0.00 0.00 0.00 22 1014.1
20260508020023 21 266 0.0 1.6 0.00 0.00 0.00 22 1009.6
20260508014554 22 0 0.0 0.0 0.00 0.00 0.00 20 1014.0
20260508014531 22 264 0.0 0.0 0.00 0.00 0.00 21 1009.6
20260508013056 23 0 0.0 12.9 0.00 0.00 0.00 18 1013.9
20260508013022 23 264 0.0 6.4 0.00 0.00 0.00 19 1009.5
20260508011553 24 271 0.0 4.8 0.00 0.00 0.00 18 1014.1
20260508011525 24 274 0.0 4.8 0.00 0.00 0.00 18 1009.7
20260508010057 23 105 3.2 9.7 0.00 0.00 0.00 18 1014.1
20260508010022 23 274 3.2 8.0 0.00 0.00 0.00 18 1009.8
20260508004554 23 234 1.6 4.8 0.00 0.00 0.00 19 1014.1
20260508004517 23 278 0.0 4.8 0.00 0.00 0.00 20 1009.8
20260508003051 22 281 3.2 11.3 0.00 0.00 0.00 20 1014.2
20260508003017 22 285 3.2 9.7 0.00 0.00 0.00 20 1010.0
20260508001556 23 269 3.2 9.7 0.00 0.00 0.00 19 1014.4
20260508001513 23 238 3.2 8.0 0.00 0.00 0.00 19 1010.2
20260508000055 22 252 8.0 14.5 0.00 0.00 0.00 19 1014.3
20260508000017 22 269 6.4 12.9 0.00 0.00 0.00 19 1010.3
20260507234559 23 249 1.6 9.7 0.00 0.00 0.00 18 1014.3
20260507234517 23 252 0.0 8.0 0.00 0.00 0.00 19 1010.3
20260507233116 23 265 4.8 16.1 0.00 0.00 0.00 18 1014.3
20260507233012 23 269 4.8 14.5 0.00 0.00 0.00 19 1010.3
20260507231551 25 96 1.6 8.0 0.00 0.00 0.00 17 1014.4
20260507231508 25 110 1.6 8.0 0.00 0.00 0.00 18 1010.5
20260507230051 23 100 3.2 12.9 0.00 0.00 0.00 18 1014.6
20260507230006 23 215 3.2 11.3 0.00 0.00 0.00 19 1010.7
20260507224553 24 333 1.6 8.0 0.00 0.00 0.00 17 1014.8
20260507224506 24 334 1.6 6.4 0.00 0.00 0.00 19 1011.1
20260507223105 23 70 1.6 9.7 0.00 0.00 0.00 19 1015.0
20260507223101 23 4 3.2 6.4 0.00 0.00 0.00 20 1011.4
20260507221559 22 277 6.4 11.3 0.00 0.00 0.00 19 1011.6
20260507221553 22 256 4.8 11.3 0.00 0.00 0.00 18 1015.1
20260507220055 23 267 3.2 8.0 0.00 0.00 0.00 19 1012.0
20260507220050 23 264 3.2 8.0 0.00 0.00 0.00 19 1015.6
20260507214601 22 253 4.8 11.3 0.00 0.00 0.00 20 1012.4
20260507214549 22 258 4.8 14.5 0.00 0.00 0.00 19 1015.8
20260507213104 22 280 4.8 12.9 0.00 0.00 0.00 19 1012.7
20260507213049 22 275 4.8 14.5 0.00 0.00 0.00 18 1016.0
20260507211601 21 62 3.2 12.9 0.00 0.00 0.00 21 1016.3
20260507211545 21 61 3.2 8.0 0.00 0.00 0.00 21 1013.1
20260507210106 21 266 3.2 16.1 0.00 0.00 0.00 19 1017.0
20260507210050 21 269 4.8 16.1 0.00 0.00 0.00 20 1013.5
20260507204548 22 285 6.4 14.5 0.00 0.00 0.00 18 1017.1
20260507203050 22 276 1.6 14.5 0.00 0.00 0.00 20 1017.4
20260507203035 22 280 0.0 9.7 0.00 0.00 0.00 21 1014.2
20260507201548 20 169 1.6 6.4 0.00 0.00 0.00 20 1017.6
20260507201532 20 169 1.6 6.4 0.00 0.00 0.00 20 1014.6
20260507200055 20 267 8.0 14.5 0.00 0.00 0.00 19 1018.0
20260507200035 20 282 8.0 12.9 0.00 0.00 0.00 20 1015.0
20260507194555 22 262 1.6 4.8 0.00 0.00 0.00 19 1018.3
20260507194524 22 271 1.6 6.4 0.00 0.00 0.00 20 1015.3
20260507193047 21 46 6.4 14.5 0.00 0.00 0.00 19 1018.4
20260507193026 21 97 4.8 11.3 0.00 0.00 0.00 19 1015.6
20260507191552 20 27 1.6 12.9 0.00 0.00 0.00 21 1018.5
20260507191517 20 289 1.6 8.0 0.00 0.00 0.00 21 1015.8
20260507190057 20 272 4.8 14.5 0.00 0.00 0.00 19 1019.0
20260507190031 20 84 1.6 12.9 0.00 0.00 0.00 19 1016.4
20260507184552 20 121 1.6 9.7 0.00 0.00 0.00 18 1019.4
20260507184510 20 51 1.6 9.7 0.00 0.00 0.00 19 1016.7
20260507183111 20 36 3.2 12.9 0.00 0.00 0.00 20 1019.5
20260507183016 20 67 3.2 11.3 0.00 0.00 0.00 20 1017.1
20260507181558 18 76 3.2 12.9 0.00 0.00 0.00 22 1019.9
20260507181507 18 44 1.6 9.7 0.00 0.00 0.00 22 1017.4
20260507180052 18 267 3.2 11.3 0.00 0.00 0.00 20 1020.0
20260507180002 18 285 3.2 8.0 0.00 0.00 0.00 20 1017.7
20260507174601 19 199 1.6 4.8 0.00 0.00 0.00 20 1018.0
20260507174559 19 86 1.6 11.3 0.00 0.00 0.00 19 1020.4
20260507173105 19 281 1.6 9.7 0.00 0.00 0.00 19 1020.6
20260507173100 19 297 1.6 8.0 0.00 0.00 0.00 18 1018.2
20260507171602 18 105 1.6 4.8 0.00 0.00 0.00 21 1018.4
20260507171549 18 117 1.6 6.4 0.00 0.00 0.00 21 1020.7
20260507170053 18 290 1.6 6.4 0.00 0.00 0.00 20 1020.9
20260507164613 16 125 1.6 12.9 0.00 0.00 0.00 24 1020.9
20260507164549 16 117 0.0 9.7 0.00 0.00 0.00 25 1018.6
20260507163054 16 54 0.0 6.4 0.00 0.00 0.00 25 1021.3
20260507163045 16 49 0.0 6.4 0.00 0.00 0.00 25 1019.2
20260507161559 15 122 3.2 6.4 0.00 0.00 0.00 26 1021.5
20260507161542 15 120 1.6 6.4 0.00 0.00 0.00 26 1019.5
20260507160050 13 155 1.6 12.9 0.00 0.00 0.00 29 1021.6
20260507160039 13 154 1.6 9.7 0.00 0.00 0.00 29 1019.7
20260507154557 13 161 3.2 11.3 0.00 0.00 0.00 30 1021.6
20260507154537 13 160 1.6 8.0 0.00 0.00 0.00 30 1019.7
20260507153056 12 167 3.2 16.1 0.00 0.00 0.00 32 1021.8
20260507153028 12 162 3.2 12.9 0.00 0.00 0.00 33 1020.0
20260507151549 11 141 4.8 12.9 0.00 0.00 0.00 33 1022.1
20260507151524 11 105 3.2 11.3 0.00 0.00 0.00 33 1020.4
20260507150055 11 161 4.8 11.3 0.00 0.00 0.00 35 1022.5
20260507150022 11 167 3.2 9.7 0.00 0.00 0.00 36 1020.9
20260507144550 11 145 1.6 8.0 0.00 0.00 0.00 35 1022.6
20260507144520 11 79 1.6 6.4 0.00 0.00 0.00 36 1021.1
20260507143101 10 127 3.2 12.9 0.00 0.00 0.00 37 1022.8
20260507143016 10 69 3.2 9.7 0.00 0.00 0.00 37 1021.3
20260507141559 9 176 1.6 8.0 0.00 0.00 0.00 36 1022.8
20260507141512 9 131 1.6 6.4 0.00 0.00 0.00 37 1021.2
20260507140058 7 110 3.2 9.7 0.00 0.00 0.00 43 1022.9
20260507140007 7 188 1.6 8.0 0.00 0.00 0.00 43 1021.4
20260507134555 6 134 4.8 11.3 0.00 0.00 0.00 45 1022.8
20260507134504 6 97 3.2 8.0 0.00 0.00 0.00 46 1021.3
20260507133056 6 169 1.6 8.0 0.00 0.00 0.00 45 1022.6
20260507133002 6 142 1.6 6.4 0.00 0.00 0.00 46 1021.1
20260507131618 6 135 1.6 6.4 0.00 0.00 0.00 44 1021.0
20260507131602 6 153 1.6 8.0 0.00 0.00 0.00 44 1022.5
20260507130111 6 140 0.0 4.8 0.00 0.00 0.00 46 1020.9
20260507130056 6 114 1.6 6.4 0.00 0.00 0.00 45 1022.5
20260507124607 5 143 1.6 4.8 0.00 0.10 0.00 47 1020.8
20260507123101 4 137 1.6 4.8 0.00 0.10 0.00 49 1020.8
20260507121558 4 166 1.6 4.8 0.00 0.10 0.00 49 1022.3
20260507121555 4 165 0.0 4.8 0.00 0.10 0.00 50 1020.8
20260507120053 4 163 0.0 3.2 0.00 0.10 0.00 49 1020.7